User: anonymous   Login
Location: Alberta Star Party
(51.6612°N, 112.9089°W)
Time: 15:06:04
(UTC-06:00)
Language:

AO-Echo - Orbit

View from above orbital plane
View from above orbital plane
View from above satellite
View from above satellite

Ground track
Ground track

The orbit data is extracted from the following two-line orbital elements,

1 28375U 04025K   17113.95805602 +.00000061 +00000-0 +30783-4 0  9996
2 28375 098.3561 048.5514 0083824 087.0460 274.0318 14.41834450673944
Epoch (UTC): 23 April 2017 22:59:36
Eccentricity: 0.0083824
inclination: 98.3561°
perigee height: 692 km
apogee height: 812 km
right ascension of ascending node: 48.5514°
argument of perigee: 87.0460°
revolutions per day: 14.41834450
mean anomaly at epoch: 274.0318°
orbit number at epoch: 67394

The dashed part of the orbit path shows where the satellite is in the earth's shadow,  

DLR